Location: Fundy National Park
(45.6138°N, 65.0316°W)
Time: 06:48:38
(UTC-03:00)

ISS - Visible Passes

Search period start: 02 July 2020 00:00
Search period end: 12 July 2020 00:00
Orbit: 417 x 420 km, 51.6° (Epoch: 02 July)

Date Brightness Start Highest point End Pass type
(mag) Time Alt. Az. Time Alt. Az. Time Alt. Az.
02 Jul -1.8 03:01:23 18° SE 03:01:23 18° SE 03:03:29 10° E visible
02 Jul -3.6 04:34:18 11° WSW 04:37:31 75° NNW 04:40:53 10° ENE visible
03 Jul -3.8 03:48:03 28° SW 03:49:39 73° SSE 03:53:00 10° ENE visible
04 Jul -3.4 03:01:46 45° SE 03:01:49 45° SE 03:05:02 10° ENE visible
04 Jul -2.6 04:35:26 10° W 04:38:38 40° NNW 04:41:50 10° NE visible
05 Jul -1.8 02:15:26 21° E 02:15:26 21° E 02:16:57 10° ENE visible
05 Jul -3.1 03:48:20 18° W 03:50:39 53° NNW 03:53:57 10° ENE visible
06 Jul -3.7 03:01:57 50° W 03:02:42 76° NNW 03:06:04 10° ENE visible
06 Jul -1.9 04:36:49 10° WNW 04:39:50 30° N 04:42:51 10° NE visible
07 Jul -3.2 02:15:30 50° E 02:15:30 50° E 02:18:08 10° ENE visible
07 Jul -2.2 03:48:40 10° W 03:51:46 33° NNW 03:54:53 10° NE visible
08 Jul -1.6 01:29:00 19° ENE 01:29:00 19° ENE 01:30:08 10° ENE visible
08 Jul -2.6 03:01:54 21° WNW 03:03:44 41° NNW 03:06:56 10° NE visible
08 Jul -1.7 04:38:05 10° WNW 04:41:03 28° N 04:44:01 10° ENE visible
09 Jul -3.2 02:15:20 51° NW 02:15:42 54° NNW 02:19:01 10° ENE visible
09 Jul -1.7 03:49:58 10° WNW 03:52:56 28° N 03:55:54 10° ENE visible
10 Jul -2.8 01:28:40 43° NE 01:28:40 43° NE 01:31:04 10° ENE visible
10 Jul -1.8 03:01:49 10° WNW 03:04:50 30° N 03:07:51 10° NE visible
10 Jul -1.9 04:39:05 10° NW 04:42:11 33° NNE 04:45:17 10° E visible
11 Jul -1.8 00:41:52 21° ENE 00:41:52 21° ENE 00:43:06 10° ENE visible
11 Jul -2.1 02:14:44 18° WNW 02:16:44 34° NNW 02:19:51 10° NE visible
11 Jul -1.7 03:51:04 10° NW 03:54:05 29° N 03:57:06 10° ENE visible
11 Jul -1.1 23:54:50 11° ENE 23:54:50 11° ENE 23:55:03 10° ENE visible
